国际通讯卫星 25 星 (INTELSAT 25 (IS-25))

导读 | 豆包AI

INTELSAT 25原名PROTOSTAR 1,由国际通信卫星组织(ITSO)相关方运营,于2008年7月7日发射。它由美国劳拉空间系统公司建造,采用1300型卫星平台,搭载22个Ku波段转发器。原属ProtoStar公司,后被Intelsat收购更名,部署到大西洋区域31.5°E轨位,主要为非洲市场提供通信与宽带服务,剩余设计寿命较长,有效提升了Intelsat卫星网络的覆盖灵活性。

基本信息
目录编号:
33153
目录名称:
INTELSAT 25(PROTOSTAR 1)
国际标识:
2008-034A
轨道中心:
EARTH
卫星名称:
国际通讯卫星 25 星
卫星全名:
国际通讯卫星 25 星 (INTELSAT 25 (IS-25))
卫星状态:
在轨 (已飞行6459 天)
发射日期:
2008-07-07 UTC
国别 :
(ITSO)
星等 :
--
轨道信息
数据来源 国际轨道数据 AOE轨道数据
星历时间 2026-03-13T18:06:36+0800
13小时前
查看轨道信息
2026-03-13T12:00:00+0800
20小时前
查看轨道信息
半长轴 42165.009km 42164.812km
偏心率 0.0003294 0.0003272
轨道倾角 2.459° 2.458°
近地点辐角 249.901° 248.677°
升交点赤经 81.495° 81.497°
平近点角 319.799° 229.124°
近地点 35772.982km 35772.878km
远地点 35800.762km 35800.472km
周期 1436.111分钟 1436.101分钟
每日圈数 1.002708 1.002715
详细信息
卫星平台:
STAR-2
平衡模式:
三轴稳定
覆盖范围:
全球
运营商:
国际卫星通信公司
运营商所在国:
美国
制造商(研发单位):
轨道ATK公司
制造商所在国:
美国
使用方式:
暂无
卫星简介
从1965年4月至1984年3月,国际通信卫星组织发射了5代、6种不同性能的卫星共计35颗,除6颗卫星因运载火箭和远地点发动机故障而发射失败外,其余29颗卫星均被送到了预定的静止轨道位置。1984年8月前后,国际通信卫星组织利用部署在大西洋、太平洋、印度洋上空的15颗国际通信卫星,为遍布世界各地170多个国家或地区提供电话、电传、电报、电视和数据传输等电信业务;该卫星仍在工作。
2D轨道图
3D轨道图
轨道高度分析图
轨道倾角分析图
轨道综合分析图
查看轨道综合分析图